Time,TemperatureF,DewpointF,PressureIn,WindDirection,WindDirectionDegrees,WindSpeedMPH,WindSpeedGustMPH,Humidity,HourlyPrecipIn,Conditions,Clouds,dailyrainin,SoftwareType,DateUTC
2013-06-05 00:01:00,46.8,44.8,30.22,North,355,0.0,0.0,93,0.00,,,0.00,meteohub,2013-06-05 04:01:00,
2013-06-05 00:02:00,46.8,44.8,30.22,North,355,0.0,0.0,93,0.00,,,0.00,meteohub,2013-06-05 04:02:00,
2013-06-05 00:03:00,46.8,44.8,30.22,North,355,0.0,0.0,93,0.00,,,0.00,meteohub,2013-06-05 04:03:00,
2013-06-05 00:06:00,46.6,44.6,30.22,North,355,0.0,0.0,93,0.00,,,0.00,meteohub,2013-06-05 04:06:00,
2013-06-05 00:11:00,46.6,45.0,30.22,North,355,0.0,0.0,94,0.00,,,0.00,meteohub,2013-06-05 04:11:00,
2013-06-05 00:16:00,46.6,45.0,30.22,North,355,0.0,0.0,94,0.00,,,0.00,meteohub,2013-06-05 04:16:00,
2013-06-05 00:22:00,46.4,44.8,30.22,North,355,0.0,0.0,94,0.00,,,0.00,meteohub,2013-06-05 04:22:00,
2013-06-05 00:27:00,46.0,44.4,30.22,North,355,0.0,0.0,94,0.00,,,0.00,meteohub,2013-06-05 04:27:00,
2013-06-05 00:32:00,46.0,44.4,30.22,North,355,0.0,0.0,94,0.00,,,0.00,meteohub,2013-06-05 04:32:00,
2013-06-05 00:37:00,45.9,44.2,30.22,North,355,0.0,0.0,94,0.00,,,0.00,meteohub,2013-06-05 04:37:00,
2013-06-05 00:42:00,45.9,44.2,30.22,North,355,0.0,0.0,94,0.00,,,0.00,meteohub,2013-06-05 04:42:00,
2013-06-05 00:47:00,45.7,44.1,30.22,North,355,0.0,0.0,94,0.00,,,0.00,meteohub,2013-06-05 04:47:00,
2013-06-05 00:52:00,45.5,43.9,30.22,North,355,0.0,0.0,94,0.00,,,0.00,meteohub,2013-06-05 04:52:00,
2013-06-05 00:57:00,45.5,43.9,30.21,North,355,0.0,0.0,94,0.00,,,0.00,meteohub,2013-06-05 04:57:00,
2013-06-05 01:02:00,45.7,44.4,30.21,North,355,0.0,0.0,95,0.00,,,0.00,meteohub,2013-06-05 05:02:00,
2013-06-05 01:07:00,45.5,44.2,30.21,North,355,0.0,0.0,95,0.00,,,0.00,meteohub,2013-06-05 05:07:00,
2013-06-05 01:12:00,45.5,44.2,30.21,North,355,0.0,0.0,95,0.00,,,0.00,meteohub,2013-06-05 05:12:00,
2013-06-05 01:17:00,45.3,43.7,30.22,North,355,0.0,0.0,94,0.00,,,0.00,meteohub,2013-06-05 05:17:00,
2013-06-05 01:22:00,45.1,43.9,30.21,North,355,0.0,0.0,95,0.00,,,0.00,meteohub,2013-06-05 05:22:00,
2013-06-05 01:27:00,45.1,43.9,30.21,North,355,0.0,0.0,95,0.00,,,0.00,meteohub,2013-06-05 05:27:00,
2013-06-05 01:32:00,45.0,43.7,30.21,North,355,0.0,0.0,95,0.00,,,0.00,meteohub,2013-06-05 05:32:00,
2013-06-05 01:37:00,45.0,43.7,30.21,North,355,0.0,0.0,95,0.00,,,0.00,meteohub,2013-06-05 05:37:00,
2013-06-05 01:42:00,45.0,43.7,30.21,North,355,0.0,0.0,95,0.00,,,0.00,meteohub,2013-06-05 05:42:00,
2013-06-05 01:47:00,45.0,43.7,30.21,North,355,0.0,0.0,95,0.00,,,0.00,meteohub,2013-06-05 05:47:00,
2013-06-05 01:52:00,45.0,43.7,30.22,North,355,0.0,0.0,95,0.00,,,0.00,meteohub,2013-06-05 05:52:00,
2013-06-05 01:57:00,45.0,43.7,30.22,North,355,0.0,0.0,95,0.00,,,0.00,meteohub,2013-06-05 05:57:00,
2013-06-05 02:02:00,45.0,43.7,30.21,North,355,0.0,0.0,95,0.00,,,0.00,meteohub,2013-06-05 06:02:00,
2013-06-05 02:07:00,45.0,43.7,30.22,North,355,0.0,0.0,95,0.00,,,0.00,meteohub,2013-06-05 06:07:00,
2013-06-05 02:12:00,45.1,43.9,30.21,North,355,0.0,0.0,95,0.00,,,0.00,meteohub,2013-06-05 06:12:00,
2013-06-05 02:17:00,45.1,43.9,30.21,North,355,0.0,0.0,95,0.00,,,0.00,meteohub,2013-06-05 06:17:00,
2013-06-05 02:22:00,45.1,43.9,30.21,North,355,0.0,0.0,95,0.00,,,0.00,meteohub,2013-06-05 06:22:00,
2013-06-05 02:27:00,45.0,43.7,30.21,North,355,0.0,0.0,95,0.00,,,0.00,meteohub,2013-06-05 06:27:00,
2013-06-05 02:32:00,44.8,43.5,30.21,North,355,0.0,0.0,95,0.00,,,0.00,meteohub,2013-06-05 06:32:00,
2013-06-05 02:37:00,44.8,43.5,30.21,North,355,0.0,0.0,95,0.00,,,0.00,meteohub,2013-06-05 06:37:00,
2013-06-05 02:42:00,44.6,43.3,30.21,North,355,0.0,0.0,95,0.00,,,0.00,meteohub,2013-06-05 06:42:00,
2013-06-05 02:47:00,44.4,43.2,30.21,North,355,0.0,0.0,95,0.00,,,0.00,meteohub,2013-06-05 06:47:00,
2013-06-05 02:52:00,44.4,43.2,30.21,North,355,0.0,0.0,95,0.00,,,0.00,meteohub,2013-06-05 06:52:00,
2013-06-05 02:57:00,44.4,43.2,30.21,North,355,0.0,0.0,95,0.00,,,0.00,meteohub,2013-06-05 06:57:00,
2013-06-05 03:03:00,44.2,43.0,30.21,North,355,0.0,0.0,95,0.00,,,0.00,meteohub,2013-06-05 07:03:00,
2013-06-05 03:08:00,44.2,43.0,30.21,North,355,0.0,0.0,95,0.00,,,0.00,meteohub,2013-06-05 07:08:00,
2013-06-05 03:13:00,44.2,43.2,30.21,North,355,0.0,0.0,96,0.00,,,0.00,meteohub,2013-06-05 07:13:00,
2013-06-05 03:19:00,44.2,43.2,30.21,North,355,0.0,0.0,96,0.00,,,0.00,meteohub,2013-06-05 07:19:00,
2013-06-05 03:24:00,44.1,43.0,30.21,North,355,0.0,0.0,96,0.00,,,0.00,meteohub,2013-06-05 07:24:00,
2013-06-05 03:29:00,44.1,42.8,30.20,North,355,0.0,0.0,95,0.00,,,0.00,meteohub,2013-06-05 07:29:00,
2013-06-05 03:34:00,44.1,42.8,30.20,North,355,0.0,0.0,95,0.00,,,0.00,meteohub,2013-06-05 07:34:00,
2013-06-05 03:40:00,44.1,42.8,30.20,North,355,0.0,0.0,95,0.00,,,0.00,meteohub,2013-06-05 07:40:00,
2013-06-05 03:45:00,44.1,43.0,30.20,North,355,0.0,0.0,96,0.00,,,0.00,meteohub,2013-06-05 07:45:00,
2013-06-05 03:50:00,44.2,43.2,30.20,North,355,0.0,0.0,96,0.00,,,0.00,meteohub,2013-06-05 07:50:00,
2013-06-05 03:55:00,44.2,43.2,30.20,North,355,0.0,0.0,96,0.00,,,0.00,meteohub,2013-06-05 07:55:00,
2013-06-05 04:00:00,44.2,43.2,30.20,North,355,0.0,0.0,96,0.00,,,0.00,meteohub,2013-06-05 08:00:00,
2013-06-05 04:06:00,44.2,43.2,30.20,North,355,0.0,0.0,96,0.00,,,0.00,meteohub,2013-06-05 08:06:00,
2013-06-05 04:11:00,44.2,43.2,30.20,North,355,0.0,0.0,96,0.00,,,0.00,meteohub,2013-06-05 08:11:00,
2013-06-05 04:16:00,44.2,43.2,30.20,North,355,0.0,0.0,96,0.00,,,0.00,meteohub,2013-06-05 08:16:00,
2013-06-05 04:21:00,44.2,43.2,30.20,North,355,0.0,0.0,96,0.00,,,0.00,meteohub,2013-06-05 08:21:00,
2013-06-05 04:27:00,44.1,43.0,30.20,North,355,0.0,0.0,96,0.00,,,0.00,meteohub,2013-06-05 08:27:00,
2013-06-05 04:32:00,44.1,43.0,30.20,North,355,0.0,0.0,96,0.00,,,0.00,meteohub,2013-06-05 08:32:00,
2013-06-05 04:37:00,44.1,43.0,30.20,North,355,0.0,0.0,96,0.00,,,0.00,meteohub,2013-06-05 08:37:00,
2013-06-05 04:42:00,44.1,43.0,30.20,North,355,0.0,0.0,96,0.00,,,0.00,meteohub,2013-06-05 08:42:00,
2013-06-05 04:47:00,44.1,43.0,30.20,North,355,0.0,0.0,96,0.00,,,0.00,meteohub,2013-06-05 08:47:00,
2013-06-05 04:52:00,44.1,43.0,30.20,North,355,0.0,0.0,96,0.00,,,0.00,meteohub,2013-06-05 08:52:00,
2013-06-05 04:57:00,44.1,43.0,30.20,North,355,0.0,0.0,96,0.00,,,0.00,meteohub,2013-06-05 08:57:00,
2013-06-05 05:02:00,44.1,43.0,30.20,North,355,0.0,0.0,96,0.00,,,0.00,meteohub,2013-06-05 09:02:00,
2013-06-05 05:07:00,44.2,43.2,30.20,North,355,0.0,0.0,96,0.00,,,0.00,meteohub,2013-06-05 09:07:00,
2013-06-05 05:12:00,44.2,43.2,30.20,North,355,0.0,0.0,96,0.00,,,0.00,meteohub,2013-06-05 09:12:00,
2013-06-05 05:17:00,44.2,43.2,30.20,North,355,0.0,0.0,96,0.00,,,0.00,meteohub,2013-06-05 09:17:00,
2013-06-05 05:22:00,44.1,43.0,30.20,North,355,0.0,0.0,96,0.00,,,0.00,meteohub,2013-06-05 09:22:00,
2013-06-05 05:27:00,44.1,43.0,30.21,North,355,0.0,0.0,96,0.00,,,0.00,meteohub,2013-06-05 09:27:00,
2013-06-05 05:32:00,44.1,43.0,30.21,North,355,0.0,0.0,96,0.00,,,0.00,meteohub,2013-06-05 09:32:00,
2013-06-05 05:38:00,44.2,43.2,30.21,North,355,0.0,0.0,96,0.00,,,0.00,meteohub,2013-06-05 09:38:00,
2013-06-05 05:43:00,44.2,43.2,30.21,North,355,0.0,0.0,96,0.00,,,0.00,meteohub,2013-06-05 09:43:00,
2013-06-05 05:48:00,44.2,43.2,30.21,North,355,0.0,0.0,96,0.00,,,0.00,meteohub,2013-06-05 09:48:00,
2013-06-05 05:53:00,44.2,43.2,30.21,North,355,0.0,0.0,96,0.00,,,0.00,meteohub,2013-06-05 09:53:00,
2013-06-05 05:58:00,44.2,43.2,30.21,North,355,0.0,0.0,96,0.00,,,0.00,meteohub,2013-06-05 09:58:00,
2013-06-05 06:04:00,44.4,43.3,30.21,North,355,0.0,0.0,96,0.00,,,0.00,meteohub,2013-06-05 10:04:00,
2013-06-05 06:09:00,44.6,43.9,30.21,North,355,0.0,0.0,97,0.00,,,0.00,meteohub,2013-06-05 10:09:00,
2013-06-05 06:14:00,44.6,43.9,30.21,North,355,0.0,0.0,97,0.00,,,0.00,meteohub,2013-06-05 10:14:00,
2013-06-05 06:20:00,44.6,43.9,30.21,North,355,0.0,0.0,97,0.00,,,0.00,meteohub,2013-06-05 10:20:00,
2013-06-05 06:25:00,44.6,43.9,30.22,North,355,0.0,0.0,97,0.00,,,0.00,meteohub,2013-06-05 10:25:00,
2013-06-05 06:30:00,44.8,44.1,30.21,North,355,0.0,0.0,97,0.00,,,0.00,meteohub,2013-06-05 10:30:00,
2013-06-05 06:35:00,44.8,44.1,30.22,North,355,0.0,0.0,97,0.00,,,0.00,meteohub,2013-06-05 10:35:00,
2013-06-05 06:40:00,45.0,44.2,30.22,North,355,0.0,0.0,97,0.00,,,0.00,meteohub,2013-06-05 10:40:00,
2013-06-05 06:46:00,45.0,44.2,30.22,North,355,0.0,0.0,97,0.00,,,0.00,meteohub,2013-06-05 10:46:00,
2013-06-05 06:51:00,45.3,44.6,30.22,North,355,0.0,0.0,97,0.00,,,0.00,meteohub,2013-06-05 10:51:00,
2013-06-05 06:57:00,45.7,45.0,30.21,North,355,0.0,0.0,97,0.00,,,0.00,meteohub,2013-06-05 10:57:00,
2013-06-05 07:02:00,46.2,45.5,30.21,North,355,0.0,0.0,97,0.00,,,0.00,meteohub,2013-06-05 11:02:00,
2013-06-05 07:07:00,46.9,46.2,30.21,North,355,0.0,0.0,97,0.00,,,0.00,meteohub,2013-06-05 11:07:00,
2013-06-05 07:12:00,47.5,46.8,30.21,North,355,0.0,0.0,97,0.00,,,0.00,meteohub,2013-06-05 11:12:00,
2013-06-05 07:17:00,48.2,47.3,30.21,North,355,0.0,0.0,97,0.00,,,0.00,meteohub,2013-06-05 11:17:00,
2013-06-05 07:22:00,48.7,47.8,30.21,North,355,0.0,0.0,97,0.00,,,0.00,meteohub,2013-06-05 11:22:00,
2013-06-05 07:27:00,48.9,47.8,30.21,North,355,0.0,0.0,96,0.00,,,0.00,meteohub,2013-06-05 11:27:00,
2013-06-05 07:32:00,49.1,48.0,30.21,North,355,0.0,0.0,96,0.00,,,0.00,meteohub,2013-06-05 11:32:00,
2013-06-05 07:37:00,49.5,48.0,30.21,North,355,0.0,0.0,95,0.00,,,0.00,meteohub,2013-06-05 11:37:00,
2013-06-05 07:42:00,49.6,48.2,30.21,North,355,0.0,0.0,95,0.00,,,0.00,meteohub,2013-06-05 11:42:00,
2013-06-05 07:47:00,50.4,48.9,30.20,North,355,0.0,0.0,95,0.00,,,0.00,meteohub,2013-06-05 11:47:00,
2013-06-05 07:53:00,51.3,49.8,30.20,North,355,0.0,0.0,95,0.00,,,0.00,meteohub,2013-06-05 11:53:00,
2013-06-05 07:58:00,52.3,50.7,30.20,North,355,0.0,0.0,94,0.00,,,0.00,meteohub,2013-06-05 11:58:00,
2013-06-05 08:03:00,53.2,50.4,30.20,North,355,0.0,0.0,90,0.00,,,0.00,meteohub,2013-06-05 12:03:00,
2013-06-05 08:08:00,54.1,50.4,30.20,North,355,0.0,0.0,87,0.00,,,0.00,meteohub,2013-06-05 12:08:00,
2013-06-05 08:14:00,55.0,50.9,30.20,North,355,0.0,0.0,86,0.00,,,0.00,meteohub,2013-06-05 12:14:00,
2013-06-05 08:19:00,55.8,50.4,30.20,North,355,0.0,0.0,82,0.00,,,0.00,meteohub,2013-06-05 12:19:00,
2013-06-05 08:24:00,56.5,50.4,30.20,North,355,0.0,0.0,80,0.00,,,0.00,meteohub,2013-06-05 12:24:00,
2013-06-05 08:29:00,57.2,50.0,30.20,North,0,0.0,0.0,77,0.00,,,0.00,meteohub,2013-06-05 12:29:00,
2013-06-05 08:35:00,57.4,49.1,30.20,ENE,59,5.0,0.0,74,0.00,,,0.00,meteohub,2013-06-05 12:35:00,
2013-06-05 08:40:00,57.2,48.9,30.19,East,87,0.0,6.0,74,0.00,,,0.00,meteohub,2013-06-05 12:40:00,
2013-06-05 08:45:00,57.4,48.4,30.19,SW,223,0.0,6.0,72,0.00,,,0.00,meteohub,2013-06-05 12:45:00,
2013-06-05 08:51:00,57.7,48.7,30.19,ESE,120,1.0,9.0,72,0.00,,,0.00,meteohub,2013-06-05 12:51:00,
2013-06-05 08:56:00,57.9,48.2,30.19,SSW,205,3.0,9.0,70,0.00,,,0.00,meteohub,2013-06-05 12:56:00,
2013-06-05 09:01:00,58.3,48.2,30.19,SE,136,2.0,9.0,69,0.00,,,0.00,meteohub,2013-06-05 13:01:00,
2013-06-05 09:06:00,58.8,47.8,30.19,SE,140,4.0,7.0,67,0.00,,,0.00,meteohub,2013-06-05 13:06:00,
2013-06-05 09:12:00,59.0,48.0,30.18,SSW,208,6.0,7.0,67,0.00,,,0.00,meteohub,2013-06-05 13:12:00,
2013-06-05 09:17:00,59.4,48.4,30.19,SSW,199,1.0,7.0,67,0.00,,,0.00,meteohub,2013-06-05 13:17:00,
2013-06-05 09:22:00,59.7,48.0,30.19,East,86,3.0,7.0,65,0.00,,,0.00,meteohub,2013-06-05 13:22:00,
2013-06-05 09:27:00,60.1,47.8,30.19,SSW,198,2.0,8.0,64,0.00,,,0.00,meteohub,2013-06-05 13:27:00,
2013-06-05 09:32:00,60.4,48.6,30.19,South,179,0.0,8.0,65,0.00,,,0.00,meteohub,2013-06-05 13:32:00,
2013-06-05 09:37:00,61.0,47.5,30.19,SSW,209,3.0,8.0,61,0.00,,,0.00,meteohub,2013-06-05 13:37:00,
2013-06-05 09:43:00,61.2,48.9,30.19,SSW,202,2.0,6.0,64,0.00,,,0.00,meteohub,2013-06-05 13:43:00,
2013-06-05 09:48:00,61.9,48.7,30.19,South,190,2.0,6.0,62,0.00,,,0.00,meteohub,2013-06-05 13:48:00,
2013-06-05 09:53:00,62.1,47.1,30.19,SSW,210,3.0,6.0,58,0.00,,,0.00,meteohub,2013-06-05 13:53:00,
2013-06-05 09:58:00,62.2,47.7,30.18,East,93,2.0,6.0,59,0.00,,,0.00,meteohub,2013-06-05 13:58:00,
2013-06-05 10:03:00,62.6,48.0,30.18,South,187,0.0,6.0,59,0.00,,,0.00,meteohub,2013-06-05 14:03:00,
2013-06-05 10:08:00,63.1,48.2,30.18,South,188,0.0,6.0,58,0.00,,,0.00,meteohub,2013-06-05 14:08:00,
2013-06-05 10:14:00,63.5,48.0,30.19,NE,53,0.0,6.0,57,0.00,,,0.00,meteohub,2013-06-05 14:14:00,
2013-06-05 10:19:00,63.9,49.3,30.18,NNE,24,4.0,6.0,59,0.00,,,0.00,meteohub,2013-06-05 14:19:00,
2013-06-05 10:24:00,64.0,48.6,30.18,NNE,29,0.0,6.0,57,0.00,,,0.00,meteohub,2013-06-05 14:24:00,
2013-06-05 10:30:00,64.6,48.6,30.18,ESE,113,1.0,6.0,56,0.00,,,0.00,meteohub,2013-06-05 14:30:00,
2013-06-05 10:35:00,64.9,48.9,30.18,East,96,0.0,5.0,56,0.00,,,0.00,meteohub,2013-06-05 14:35:00,
2013-06-05 10:40:00,65.7,50.0,30.18,East,96,1.0,5.0,57,0.00,,,0.00,meteohub,2013-06-05 14:40:00,
2013-06-05 10:45:00,65.8,48.7,30.18,East,100,4.0,5.0,54,0.00,,,0.00,meteohub,2013-06-05 14:45:00,
2013-06-05 10:50:00,65.7,49.1,30.17,ESE,103,2.0,5.0,55,0.00,,,0.00,meteohub,2013-06-05 14:50:00,
2013-06-05 10:56:00,66.0,49.8,30.16,ESE,103,0.0,5.0,56,0.00,,,0.00,meteohub,2013-06-05 14:56:00,
2013-06-05 11:01:00,66.0,48.4,30.16,SE,129,0.0,7.0,53,0.00,,,0.00,meteohub,2013-06-05 15:01:00,
2013-06-05 11:06:00,66.0,48.4,30.15,SSE,163,4.0,7.0,53,0.00,,,0.00,meteohub,2013-06-05 15:06:00,
2013-06-05 11:12:00,66.6,49.5,30.15,SE,128,4.0,7.0,54,0.00,,,0.00,meteohub,2013-06-05 15:12:00,
2013-06-05 11:17:00,66.7,49.1,30.15,ESE,105,5.0,7.0,53,0.00,,,0.00,meteohub,2013-06-05 15:17:00,
2013-06-05 11:22:00,66.7,49.1,30.15,SSE,163,0.0,7.0,53,0.00,,,0.00,meteohub,2013-06-05 15:22:00,
2013-06-05 11:27:00,67.3,50.5,30.15,East,82,0.0,7.0,55,0.00,,,0.00,meteohub,2013-06-05 15:27:00,
2013-06-05 11:32:00,67.6,49.8,30.15,NNE,26,1.0,6.0,53,0.00,,,0.00,meteohub,2013-06-05 15:32:00,
2013-06-05 11:37:00,67.8,49.6,30.15,East,94,0.0,4.0,52,0.00,,,0.00,meteohub,2013-06-05 15:37:00,
2013-06-05 11:43:00,68.4,50.0,30.14,NNE,32,4.0,5.0,52,0.00,,,0.00,meteohub,2013-06-05 15:43:00,
2013-06-05 11:48:00,68.4,49.5,30.14,ENE,78,2.0,8.0,51,0.00,,,0.00,meteohub,2013-06-05 15:48:00,
2013-06-05 11:53:00,68.4,50.0,30.14,South,190,2.0,8.0,52,0.00,,,0.00,meteohub,2013-06-05 15:53:00,
2013-06-05 11:58:00,68.4,50.0,30.13,SSW,194,0.0,8.0,52,0.00,,,0.00,meteohub,2013-06-05 15:58:00,
2013-06-05 12:04:00,68.5,50.2,30.12,NE,50,2.0,9.0,52,0.00,,,0.00,meteohub,2013-06-05 16:04:00,
2013-06-05 12:09:00,68.9,51.1,30.13,SSW,206,0.0,9.0,53,0.00,,,0.00,meteohub,2013-06-05 16:09:00,
2013-06-05 12:14:00,69.3,49.8,30.13,East,90,1.0,9.0,50,0.00,,,0.00,meteohub,2013-06-05 16:14:00,
2013-06-05 12:19:00,69.3,50.4,30.12,NNE,30,2.0,7.0,51,0.00,,,0.00,meteohub,2013-06-05 16:19:00,
2013-06-05 12:24:00,69.4,50.0,30.12,ESE,113,2.0,8.0,50,0.00,,,0.00,meteohub,2013-06-05 16:24:00,
2013-06-05 12:30:00,69.4,49.5,30.11,South,190,2.0,8.0,49,0.00,,,0.00,meteohub,2013-06-05 16:30:00,
2013-06-05 12:35:00,70.0,51.1,30.11,SE,124,2.0,8.0,51,0.00,,,0.00,meteohub,2013-06-05 16:35:00,
2013-06-05 12:40:00,70.3,51.4,30.11,NNE,26,2.0,6.0,51,0.00,,,0.00,meteohub,2013-06-05 16:40:00,
2013-06-05 12:47:00,70.5,50.9,30.11,East,91,1.0,6.0,50,0.00,,,0.00,meteohub,2013-06-05 16:47:00,
2013-06-05 12:52:00,70.3,50.9,30.11,ESE,111,1.0,7.0,50,0.00,,,0.00,meteohub,2013-06-05 16:52:00,
2013-06-05 12:57:00,70.2,49.6,30.11,East,80,0.0,11.0,48,0.00,,,0.00,meteohub,2013-06-05 16:57:00,
2013-06-05 13:02:00,70.5,52.0,30.10,NE,34,3.0,11.0,52,0.00,,,0.00,meteohub,2013-06-05 17:02:00,
2013-06-05 13:07:00,70.9,50.7,30.10,East,93,5.0,11.0,49,0.00,,,0.00,meteohub,2013-06-05 17:07:00,
2013-06-05 13:12:00,71.1,50.9,30.10,SE,140,8.0,8.0,49,0.00,,,0.00,meteohub,2013-06-05 17:12:00,
2013-06-05 13:17:00,70.7,50.5,30.10,ENE,74,0.0,8.0,49,0.00,,,0.00,meteohub,2013-06-05 17:17:00,
2013-06-05 13:22:00,70.9,49.6,30.10,SSE,167,0.0,10.0,47,0.00,,,0.00,meteohub,2013-06-05 17:22:00,
2013-06-05 13:27:00,71.1,50.4,30.10,ENE,61,3.0,10.0,48,0.00,,,0.00,meteohub,2013-06-05 17:27:00,
2013-06-05 13:32:00,71.2,50.0,30.10,East,88,4.0,10.0,47,0.00,,,0.00,meteohub,2013-06-05 17:32:00,
2013-06-05 13:37:00,71.1,50.4,30.10,SE,126,0.0,10.0,48,0.00,,,0.00,meteohub,2013-06-05 17:37:00,
2013-06-05 13:43:00,71.4,50.7,30.11,NE,46,4.0,10.0,48,0.00,,,0.00,meteohub,2013-06-05 17:43:00,
2013-06-05 13:48:00,71.4,54.9,30.11,NE,54,5.0,8.0,56,0.00,,,0.00,meteohub,2013-06-05 17:48:00,
2013-06-05 13:53:00,70.5,54.1,30.10,ENE,76,11.0,12.0,56,0.00,,,0.00,meteohub,2013-06-05 17:53:00,
2013-06-05 13:58:00,70.0,55.0,30.10,ENE,62,2.0,13.0,59,0.00,,,0.00,meteohub,2013-06-05 17:58:00,
2013-06-05 14:04:00,70.0,55.4,30.09,ENE,65,5.0,13.0,60,0.00,,,0.00,meteohub,2013-06-05 18:04:00,
2013-06-05 14:09:00,70.0,55.0,30.09,NE,49,5.0,13.0,59,0.00,,,0.00,meteohub,2013-06-05 18:09:00,
2013-06-05 14:14:00,69.4,54.0,30.10,ENE,60,6.0,12.0,58,0.00,,,0.00,meteohub,2013-06-05 18:14:00,
2013-06-05 14:19:00,69.6,54.7,30.09,NE,51,7.0,13.0,59,0.00,,,0.00,meteohub,2013-06-05 18:19:00,
2013-06-05 14:25:00,69.6,53.8,30.09,NW,321,0.0,13.0,57,0.00,,,0.00,meteohub,2013-06-05 18:25:00,
2013-06-05 14:30:00,69.4,54.0,30.09,ENE,57,8.0,13.0,58,0.00,,,0.00,meteohub,2013-06-05 18:30:00,
2013-06-05 14:35:00,69.6,54.1,30.09,North,5,4.0,11.0,58,0.00,,,0.00,meteohub,2013-06-05 18:35:00,
2013-06-05 14:40:00,69.4,53.6,30.10,NNW,333,2.0,11.0,57,0.00,,,0.00,meteohub,2013-06-05 18:40:00,
2013-06-05 14:46:00,69.4,54.0,30.09,WNW,282,3.0,11.0,58,0.00,,,0.00,meteohub,2013-06-05 18:46:00,
2013-06-05 14:51:00,69.4,54.5,30.09,ENE,72,2.0,11.0,59,0.00,,,0.00,meteohub,2013-06-05 18:51:00,
2013-06-05 14:56:00,69.4,53.6,30.09,ENE,67,6.0,11.0,57,0.00,,,0.00,meteohub,2013-06-05 18:56:00,
2013-06-05 15:02:00,69.4,54.5,30.10,ENE,57,5.0,11.0,59,0.00,,,0.00,meteohub,2013-06-05 19:02:00,
2013-06-05 15:07:00,69.4,53.6,30.09,ENE,70,2.0,11.0,57,0.00,,,0.00,meteohub,2013-06-05 19:07:00,
2013-06-05 15:12:00,69.6,54.1,30.10,NNE,24,5.0,11.0,58,0.00,,,0.00,meteohub,2013-06-05 19:12:00,
2013-06-05 15:17:00,69.4,53.6,30.10,NNE,20,4.0,9.0,57,0.00,,,0.00,meteohub,2013-06-05 19:17:00,
2013-06-05 15:22:00,69.4,54.0,30.09,NE,46,3.0,10.0,58,0.00,,,0.00,meteohub,2013-06-05 19:22:00,
2013-06-05 15:27:00,69.4,54.0,30.09,NNE,30,5.0,10.0,58,0.00,,,0.00,meteohub,2013-06-05 19:27:00,
2013-06-05 15:32:00,69.4,53.6,30.09,East,92,4.0,10.0,57,0.00,,,0.00,meteohub,2013-06-05 19:32:00,
2013-06-05 15:37:00,69.3,53.8,30.09,North,5,2.0,10.0,58,0.00,,,0.00,meteohub,2013-06-05 19:37:00,
2013-06-05 15:42:00,69.3,53.8,30.09,ENE,72,11.0,11.0,58,0.00,,,0.00,meteohub,2013-06-05 19:42:00,
2013-06-05 15:48:00,69.1,52.7,30.09,ENE,57,5.0,13.0,56,0.00,,,0.00,meteohub,2013-06-05 19:48:00,
2013-06-05 15:53:00,68.5,52.2,30.09,North,355,2.0,13.0,56,0.00,,,0.00,meteohub,2013-06-05 19:53:00,
2013-06-05 15:58:00,68.7,52.9,30.08,NE,53,2.0,13.0,57,0.00,,,0.00,meteohub,2013-06-05 19:58:00,
2013-06-05 16:03:00,68.7,52.3,30.08,NE,53,4.0,10.0,56,0.00,,,0.00,meteohub,2013-06-05 20:03:00,
2013-06-05 16:08:00,68.7,53.4,30.08,NNE,26,0.0,10.0,58,0.00,,,0.00,meteohub,2013-06-05 20:08:00,
2013-06-05 16:14:00,68.7,52.9,30.07,NNW,346,5.0,10.0,57,0.00,,,0.00,meteohub,2013-06-05 20:14:00,
2013-06-05 16:19:00,68.4,52.5,30.07,NE,53,1.0,10.0,57,0.00,,,0.00,meteohub,2013-06-05 20:19:00,
2013-06-05 16:24:00,68.4,53.4,30.07,NE,52,3.0,11.0,59,0.00,,,0.00,meteohub,2013-06-05 20:24:00,
2013-06-05 16:29:00,68.4,52.5,30.07,NNW,340,6.0,11.0,57,0.00,,,0.00,meteohub,2013-06-05 20:29:00,
2013-06-05 16:35:00,68.4,52.0,30.07,NE,49,5.0,8.0,56,0.00,,,0.00,meteohub,2013-06-05 20:35:00,
2013-06-05 16:40:00,68.2,51.4,30.06,ENE,75,6.0,8.0,55,0.00,,,0.00,meteohub,2013-06-05 20:40:00,
2013-06-05 16:45:00,68.2,51.8,30.06,ENE,61,8.0,11.0,56,0.00,,,0.00,meteohub,2013-06-05 20:45:00,
2013-06-05 16:50:00,67.8,51.1,30.06,East,96,4.0,12.0,55,0.00,,,0.00,meteohub,2013-06-05 20:50:00,
2013-06-05 16:56:00,67.8,51.6,30.06,NNE,32,6.0,12.0,56,0.00,,,0.00,meteohub,2013-06-05 20:56:00,
2013-06-05 17:01:00,68.0,52.7,30.05,ENE,61,0.0,12.0,58,0.00,,,0.00,meteohub,2013-06-05 21:01:00,
2013-06-05 17:06:00,68.2,51.4,30.05,ENE,76,5.0,8.0,55,0.00,,,0.00,meteohub,2013-06-05 21:06:00,
2013-06-05 17:12:00,68.2,51.4,30.06,ENE,63,8.0,8.0,55,0.00,,,0.00,meteohub,2013-06-05 21:12:00,
2013-06-05 17:17:00,67.8,50.0,30.06,East,99,7.0,10.0,53,0.00,,,0.00,meteohub,2013-06-05 21:17:00,
2013-06-05 17:22:00,67.6,49.5,30.05,NNE,30,3.0,11.0,52,0.00,,,0.00,meteohub,2013-06-05 21:22:00,
2013-06-05 17:27:00,67.6,49.8,30.05,North,0,4.0,13.0,53,0.00,,,0.00,meteohub,2013-06-05 21:27:00,
2013-06-05 17:32:00,67.5,49.3,30.05,NE,34,4.0,13.0,52,0.00,,,0.00,meteohub,2013-06-05 21:32:00,
2013-06-05 17:37:00,67.5,50.2,30.05,NNE,25,3.0,13.0,54,0.00,,,0.00,meteohub,2013-06-05 21:37:00,
2013-06-05 17:42:00,67.5,50.2,30.05,ENE,69,6.0,12.0,54,0.00,,,0.00,meteohub,2013-06-05 21:42:00,
2013-06-05 17:47:00,67.3,50.0,30.05,NNW,331,8.0,11.0,54,0.00,,,0.00,meteohub,2013-06-05 21:47:00,
2013-06-05 17:52:00,67.3,50.0,30.04,ENE,71,4.0,11.0,54,0.00,,,0.00,meteohub,2013-06-05 21:52:00,
2013-06-05 17:57:00,67.3,49.1,30.04,ENE,71,6.0,11.0,52,0.00,,,0.00,meteohub,2013-06-05 21:57:00,
2013-06-05 18:03:00,67.3,49.1,30.04,NE,40,1.0,8.0,52,0.00,,,0.00,meteohub,2013-06-05 22:03:00,
2013-06-05 18:08:00,67.3,49.6,30.04,ENE,65,0.0,8.0,53,0.00,,,0.00,meteohub,2013-06-05 22:08:00,
2013-06-05 18:13:00,67.3,49.1,30.03,ENE,74,1.0,8.0,52,0.00,,,0.00,meteohub,2013-06-05 22:13:00,
2013-06-05 18:19:00,67.1,48.9,30.03,NE,34,2.0,7.0,52,0.00,,,0.00,meteohub,2013-06-05 22:19:00,
2013-06-05 18:24:00,66.9,48.7,30.03,ENE,67,3.0,8.0,52,0.00,,,0.00,meteohub,2013-06-05 22:24:00,
2013-06-05 18:29:00,66.9,48.7,30.03,North,351,5.0,8.0,52,0.00,,,0.00,meteohub,2013-06-05 22:29:00,
2013-06-05 18:34:00,66.7,48.0,30.03,NE,40,4.0,8.0,51,0.00,,,0.00,meteohub,2013-06-05 22:34:00,
2013-06-05 18:39:00,66.4,47.7,30.03,East,92,6.0,8.0,51,0.00,,,0.00,meteohub,2013-06-05 22:39:00,
2013-06-05 18:45:00,66.4,47.7,30.03,ENE,67,4.0,8.0,51,0.00,,,0.00,meteohub,2013-06-05 22:45:00,
2013-06-05 18:50:00,66.4,47.7,30.03,NE,41,0.0,10.0,51,0.00,,,0.00,meteohub,2013-06-05 22:50:00,
2013-06-05 18:55:00,66.4,48.2,30.03,NNE,22,0.0,10.0,52,0.00,,,0.00,meteohub,2013-06-05 22:55:00,
2013-06-05 19:00:00,66.2,48.0,30.03,NNW,345,4.0,10.0,52,0.00,,,0.00,meteohub,2013-06-05 23:00:00,
2013-06-05 19:05:00,65.8,47.7,30.03,NE,40,5.0,10.0,52,0.00,,,0.00,meteohub,2013-06-05 23:05:00,
2013-06-05 19:10:00,65.8,48.2,30.02,NE,36,2.0,10.0,53,0.00,,,0.00,meteohub,2013-06-05 23:10:00,
2013-06-05 19:16:00,65.7,48.6,30.02,NNW,339,1.0,10.0,54,0.00,,,0.00,meteohub,2013-06-05 23:16:00,
2013-06-05 19:21:00,65.5,48.4,30.02,NNW,331,2.0,10.0,54,0.00,,,0.00,meteohub,2013-06-05 23:21:00,
2013-06-05 19:26:00,65.1,47.5,30.02,East,81,4.0,10.0,53,0.00,,,0.00,meteohub,2013-06-05 23:26:00,
2013-06-05 19:32:00,64.9,47.8,30.02,North,5,4.0,12.0,54,0.00,,,0.00,meteohub,2013-06-05 23:32:00,
2013-06-05 19:37:00,64.9,48.4,30.02,NE,55,4.0,12.0,55,0.00,,,0.00,meteohub,2013-06-05 23:37:00,
2013-06-05 19:42:00,64.8,48.2,30.02,NNE,19,4.0,10.0,55,0.00,,,0.00,meteohub,2013-06-05 23:42:00,
2013-06-05 19:47:00,64.6,48.0,30.02,East,94,5.0,11.0,55,0.00,,,0.00,meteohub,2013-06-05 23:47:00,
2013-06-05 19:52:00,64.2,48.2,30.03,NE,52,0.0,11.0,56,0.00,,,0.00,meteohub,2013-06-05 23:52:00,
2013-06-05 19:57:00,64.0,48.0,30.02,NE,47,0.0,11.0,56,0.00,,,0.00,meteohub,2013-06-05 23:57:00,
2013-06-05 20:02:00,63.9,48.4,30.02,NE,53,4.0,11.0,57,0.00,,,0.00,meteohub,2013-06-06 00:02:00,
2013-06-05 20:07:00,63.7,48.2,30.01,ENE,70,4.0,11.0,57,0.00,,,0.00,meteohub,2013-06-06 00:07:00,
2013-06-05 20:12:00,63.3,48.4,30.01,North,355,0.0,7.0,58,0.00,,,0.00,meteohub,2013-06-06 00:12:00,
2013-06-05 20:17:00,63.1,48.6,30.02,NNW,337,1.0,7.0,59,0.00,,,0.00,meteohub,2013-06-06 00:17:00,
2013-06-05 20:23:00,63.0,48.4,30.02,North,355,2.0,7.0,59,0.00,,,0.00,meteohub,2013-06-06 00:23:00,
2013-06-05 20:28:00,62.8,48.7,30.01,ENE,57,0.0,6.0,60,0.00,,,0.00,meteohub,2013-06-06 00:28:00,
2013-06-05 20:33:00,62.6,48.6,30.02,NNW,348,3.0,7.0,60,0.00,,,0.00,meteohub,2013-06-06 00:33:00,
2013-06-05 20:38:00,62.4,48.7,30.01,NNE,32,0.0,7.0,61,0.00,,,0.00,meteohub,2013-06-06 00:38:00,
2013-06-05 20:44:00,62.2,48.6,30.01,NE,34,2.0,7.0,61,0.00,,,0.00,meteohub,2013-06-06 00:44:00,
2013-06-05 20:49:00,62.1,48.4,30.01,NE,51,3.0,7.0,61,0.00,,,0.00,meteohub,2013-06-06 00:49:00,
2013-06-05 20:54:00,62.1,48.4,30.01,NNE,17,0.0,5.0,61,0.00,,,0.00,meteohub,2013-06-06 00:54:00,
2013-06-05 20:59:00,61.9,48.7,30.01,NNE,22,2.0,5.0,62,0.00,,,0.00,meteohub,2013-06-06 00:59:00,
2013-06-05 21:04:00,61.7,48.6,30.01,NNE,18,0.0,5.0,62,0.00,,,0.00,meteohub,2013-06-06 01:04:00,
2013-06-05 21:10:00,61.5,48.7,30.01,North,0,0.0,4.0,63,0.00,,,0.00,meteohub,2013-06-06 01:10:00,
2013-06-05 21:15:00,61.3,48.6,30.01,NE,34,0.0,4.0,63,0.00,,,0.00,meteohub,2013-06-06 01:15:00,
2013-06-05 21:20:00,61.2,48.9,30.01,NE,34,0.0,3.0,64,0.00,,,0.00,meteohub,2013-06-06 01:20:00,
2013-06-05 21:26:00,61.0,48.7,30.01,NE,34,0.0,3.0,64,0.00,,,0.00,meteohub,2013-06-06 01:26:00,
2013-06-05 21:31:00,60.8,49.5,30.01,North,5,0.0,4.0,66,0.00,,,0.00,meteohub,2013-06-06 01:31:00,
2013-06-05 21:36:00,60.6,49.3,30.01,North,5,0.0,4.0,66,0.00,,,0.00,meteohub,2013-06-06 01:36:00,
2013-06-05 21:42:00,60.4,49.5,30.01,North,5,0.0,4.0,67,0.00,,,0.00,meteohub,2013-06-06 01:42:00,
2013-06-05 21:47:00,60.4,49.8,30.02,NNW,342,0.0,2.0,68,0.00,,,0.00,meteohub,2013-06-06 01:47:00,
2013-06-05 21:52:00,60.3,50.9,30.01,NNE,19,0.0,3.0,71,0.00,,,0.00,meteohub,2013-06-06 01:52:00,
2013-06-05 21:57:00,60.1,51.1,30.01,NE,37,3.0,5.0,72,0.00,,,0.00,meteohub,2013-06-06 01:57:00,
2013-06-05 22:02:00,60.1,51.4,30.02,NW,321,5.0,8.0,73,0.00,,,0.00,meteohub,2013-06-06 02:02:00,
2013-06-05 22:08:00,60.1,51.8,30.01,NNE,32,4.0,8.0,74,0.00,,,0.00,meteohub,2013-06-06 02:08:00,
2013-06-05 22:13:00,59.9,51.6,30.01,NE,44,0.0,10.0,74,0.00,,,0.00,meteohub,2013-06-06 02:13:00,
2013-06-05 22:18:00,59.7,51.4,30.01,NNE,24,4.0,10.0,74,0.00,,,0.00,meteohub,2013-06-06 02:18:00,
2013-06-05 22:23:00,59.5,51.6,30.01,ENE,78,3.0,8.0,75,0.00,,,0.00,meteohub,2013-06-06 02:23:00,
2013-06-05 22:28:00,59.5,51.6,30.02,NE,40,1.0,8.0,75,0.00,,,0.00,meteohub,2013-06-06 02:28:00,
2013-06-05 22:34:00,59.4,51.4,30.01,NNE,17,1.0,8.0,75,0.00,,,0.00,meteohub,2013-06-06 02:34:00,
2013-06-05 22:39:00,59.4,51.8,30.01,NNE,24,0.0,6.0,76,0.00,,,0.00,meteohub,2013-06-06 02:39:00,
2013-06-05 22:44:00,59.4,51.8,30.01,NNW,344,1.0,6.0,76,0.00,,,0.00,meteohub,2013-06-06 02:44:00,
2013-06-05 22:49:00,59.4,51.8,30.01,NE,45,2.0,6.0,76,0.00,,,0.00,meteohub,2013-06-06 02:49:00,
2013-06-05 22:55:00,59.2,51.6,30.01,North,0,0.0,5.0,76,0.00,,,0.00,meteohub,2013-06-06 02:55:00,
2013-06-05 23:00:00,59.2,52.0,30.01,North,0,0.0,5.0,77,0.00,,,0.00,meteohub,2013-06-06 03:00:00,
2013-06-05 23:05:00,59.0,51.8,30.01,North,0,0.0,4.0,77,0.00,,,0.00,meteohub,2013-06-06 03:05:00,
2013-06-05 23:10:00,58.8,51.6,30.01,North,0,0.0,3.0,77,0.00,,,0.00,meteohub,2013-06-06 03:10:00,
2013-06-05 23:17:00,58.8,51.6,30.00,North,0,0.0,3.0,77,0.00,,,0.00,meteohub,2013-06-06 03:17:00,
2013-06-05 23:22:00,58.6,51.8,30.00,North,5,0.0,1.0,78,0.00,,,0.00,meteohub,2013-06-06 03:22:00,
2013-06-05 23:27:00,58.6,51.8,30.00,North,5,0.0,2.0,78,0.00,,,0.00,meteohub,2013-06-06 03:27:00,
2013-06-05 23:32:00,58.5,51.6,30.00,North,5,0.0,2.0,78,0.00,,,0.00,meteohub,2013-06-06 03:32:00,
2013-06-05 23:37:00,58.1,51.6,30.00,North,5,0.0,2.0,79,0.00,,,0.00,meteohub,2013-06-06 03:37:00,
2013-06-05 23:42:00,57.9,51.8,30.00,North,5,0.0,0.0,80,0.00,,,0.00,meteohub,2013-06-06 03:42:00,
2013-06-05 23:47:00,57.7,51.6,29.99,North,5,0.0,0.0,80,0.00,,,0.00,meteohub,2013-06-06 03:47:00,
2013-06-05 23:52:00,57.7,51.6,29.99,North,5,0.0,0.0,80,0.00,,,0.00,meteohub,2013-06-06 03:52:00,
2013-06-05 23:57:00,57.6,51.8,29.99,North,5,0.0,1.0,81,0.00,,,0.00,meteohub,2013-06-06 03:57:00,